Temperature
-0 -0 -0 -0 -1 -1 -1 -1 -1 -1 -1 -1 -1 -1 -1 -0 -0 -0 0 -0 0 0 0 0 0 0 -0 -0 -0 -1 -1 -1 -1 -0 -0 -0 -0 -0 0 0 0 0 1
-1 -1 -1 -1 -1 -1 -1 -1 -1 -1 -1 -1 -1 -1 -1 -1 -1 -1 -1 -1 -1 -1 -0 -1 -1 -1 -1 -1 -1 -1 -1 -1 -2 -1 -1 -1 -1 -1 -1 -1 -1 -1 -0
-2 -2 -2 -2 -2 -2 -2 -2 -2 -2 -2 -2 -2 -2 -2 -2 -2 -2 -2 -1 -1 -1 -1 -1 -1 -1 -1 -1 -1 -1 -2 -2 -2 -2 -2 -1 -1 -1 -1 -2 -2 -1 -1
-2 -2 -2 -2 -2 -2 -2 -2 -2 -2 -2 -2 -2 -2 -2 -2 -2 -2 -2 -2 -2 -2 -2 -2 -2 -2 -2 -2 -2 -2 -2 -2 -3 -3 -3 -2 -2 -2 -2 -2 -2 -2 -2
-3 -3 -3 -3 -3 -3 -3 -3 -3 -3 -3 -3 -3 -3 -3 -3 -3 -3 -3 -3 -3 -3 -3 -3 -3 -3 -3 -3 -3 -3 -3 -3 -3 -3 -3 -3 -3 -3 -3 -3 -4 -3 -3
-3 -3 -4 -4 -4 -4 -4 -4 -4 -4 -4 -4 -4 -4 -4 -4 -4 -4 -4 -4 -4 -4 -3 -3 -3 -3 -3 -3 -3 -4 -3 -3 -3 -4 -4 -4 -3 -3 -4 -4 -4 -5 -4
-4 -4 -4 -4 -5 -4 -4 -4 -4 -4 -4 -4 -4 -4 -5 -5 -5 -5 -5 -5 -5 -4 -4 -4 -4 -4 -4 -4 -4 -4 -4 -4 -4 -4 -4 -4 -4 -4 -4 -4 -5 -5 -5
-5 -5 -5 -5 -5 -5 -5 -5 -5 -5 -5 -5 -5 -5 -5 -5 -5 -5 -5 -5 -5 -5 -5 -5 -5 -5 -5 -5 -5 -5 -5 -5 -5 -5 -5 -5 -5 -5 -5 -5 -5 -5 -6
-6 -6 -6 -6 -6 -6 -6 -6 -6 -6 -6 -6 -6 -6 -6 -6 -6 -6 -6 -6 -6 -6 -6 -6 -6 -6 -6 -6 -6 -6 -6 -6 -6 -6 -6 -6 -6 -6 -6 -6 -6 -6 -6
-6 -7 -7 -7 -7 -7 -7 -7 -7 -7 -7 -7 -7 -7 -7 -6 -6 -6 -7 -7 -7 -7 -7 -7 -7 -7 -6 -7 -7 -7 -7 -6 -6 -6 -6 -6 -6 -6 -6 -6 -6 -7 -7
-8 -8 -8 -8 -8 -8 -8 -8 -8 -8 -8 -8 -8 -7 -7 -7 -7 -7 -8 -8 -8 -8 -7 -7 -7 -7 -7 -7 -7 -7 -7 -7 -7 -7 -7 -7 -7 -7 -7 -7 -7 -7 -8
-8 -8 -8 -8 -9 -9 -9 -9 -9 -9 -9 -8 -8 -8 -8 -8 -8 -8 -8 -8 -8 -8 -8 -8 -8 -8 -8 -8 -8 -8 -8 -8 -8 -8 -8 -8 -8 -8 -8 -8 -8 -8 -8
-9 -9 -9 -9 -9 -9 -9 -9 -9 -9 -10 -9 -9 -9 -9 -9 -9 -9 -9 -9 -9 -9 -9 -9 -9 -9 -9 -9 -9 -9 -9 -9 -9 -9 -9 -9 -9 -9 -9 -9 -9 -9 -9
-10 -10 -10 -10 -10 -10 -10 -10 -10 -10 -10 -10 -10 -10 -10 -10 -10 -10 -10 -10 -10 -10 -10 -9 -9 -9 -9 -9 -9 -9 -9 -9 -10 -10 -10 -10 -10 -10 -10 -10 -10 -9 -9
-11 -11 -11 -11 -11 -11 -11 -11 -11 -11 -11 -11 -11 -11 -11 -11 -11 -11 -10 -10 -10 -10 -10 -10 -10 -10 -10 -10 -10 -10 -10 -10 -10 -10 -10 -10 -10 -10 -10 -10 -10 -10 -10
-12 -12 -12 -12 -11 -11 -11 -11 -11 -11 -11 -12 -12 -12 -12 -11 -11 -11 -11 -11 -11 -11 -11 -10 -10 -11 -11 -11 -11 -11 -11 -11 -11 -11 -11 -11 -11 -11 -11 -11 -11 -11 -11
-12 -12 -13 -12 -12 -12 -12 -12 -12 -12 -12 -12 -12 -12 -12 -12 -12 -12 -12 -11 -11 -11 -11 -11 -11 -11 -11 -11 -11 -12 -11 -11 -11 -11 -11 -11 -12 -12 -11 -11 -11 -11 -11
-13 -13 -13 -13 -13 -13 -13 -13 -13 -13 -12 -12 -12 -12 -13 -13 -12 -12 -12 -12 -12 -12 -12 -12 -12 -12 -12 -12 -12 -12 -12 -12 -12 -12 -12 -12 -12 -12 -12 -12 -12 -12 -12
-14 -14 -14 -14 -14 -14 -13 -13 -13 -13 -13 -13 -13 -13 -13 -13 -13 -13 -13 -13 -13 -13 -13 -13 -13 -13 -13 -13 -13 -13 -13 -13 -12 -12 -13 -13 -12 -12 -12 -12 -12 -12 -12
-14 -14 -14 -14 -14 -14 -14 -14 -14 -14 -14 -14 -14 -14 -13 -14 -13 -13 -13 -13 -13 -13 -13 -13 -13 -13 -13 -13 -13 -13 -13 -13 -13 -13 -13 -13 -13 -13 -13 -13 -13 -13 -13
-15 -15 -15 -15 -15 -15 -15 -15 -15 -15 -15 -15 -15 -14 -15 -15 -14 -14 -14 -14 -14 -14 -14 -14 -14 -14 -14 -14 -14 -14 -14 -14 -14 -13 -13 -13 -13 -13 -13 -13 -13 -13 -13
-15 -15 -15 -15 -15 -15 -15 -15 -16 -16 -16 -16 -16 -15 -15 -15 -15 -15 -15 -15 -15 -15 -15 -15 -15 -15 -15 -14 -14 -14 -14 -14 -14 -14 -14 -14 -14 -14 -14 -14 -14 -14 -14
-16 -16 -16 -16 -16 -16 -16 -16 -16 -16 -16 -16 -16 -16 -16 -16 -16 -16 -16 -16 -15 -15 -15 -15 -15 -15 -15 -15 -15 -15 -15 -15 -15 -15 -14 -14 -14 -14 -14 -14 -14 -14 -14
-16 -17 -17 -17 -17 -17 -17 -17 -17 -17 -17 -17 -17 -17 -17 -17 -16 -16 -16 -16 -16 -16 -16 -16 -16 -16 -16 -16 -16 -15 -15 -15 -15 -15 -15 -15 -15 -15 -15 -15 -15 -15 -15
-17 -17 -17 -17 -17 -17 -17 -17 -17 -17 -17 -17 -17 -17 -17 -17 -17 -17 -17 -17 -16 -16 -16 -16 -16 -16 -16 -16 -16 -16 -16 -15 -15 -15 -15 -15 -15 -15 -15 -15 -15 -15 -15
-18 -18 -18 -18 -18 -18 -18 -18 -18 -18 -18 -18 -18 -18 -18 -18 -18 -17 -17 -17 -17 -17 -17 -17 -17 -17 -17 -16 -16 -16 -16 -16 -16 -16 -16 -16 -16 -16 -16 -16 -16 -15 -15
Wind_Speed
1 2 2 2 2 2 2 3 3 3 3 3 4 4 4 4 4 3 3 3 4 4 4 5 5 4 4 4 4 4 4 4 5 4 3 3 4 4 5 6 7 7 7
1 1 2 1 1 2 2 3 2 3 3 3 3 4 4 4 4 4 5 4 5 5 5 5 5 4 5 4 4 5 5 5 5 6 4 4 4 5 5 5 5 6 7
1 1 2 2 2 2 3 3 2 2 3 3 2 3 4 4 4 5 5 5 6 6 6 6 6 6 6 5 6 6 5 5 5 5 5 4 3 3 3 4 5 5 7
1 1 2 3 3 3 3 2 2 2 2 3 3 3 3 4 4 4 5 5 6 6 6 6 6 7 7 7 6 7 6 5 5 5 5 4 3 3 3 4 4 4 5
2 2 3 3 3 2 2 2 3 2 3 3 3 3 3 3 4 4 5 5 5 5 5 5 6 8 8 7 6 6 6 6 5 5 5 4 4 4 4 4 5 4 5
2 3 3 2 2 2 2 2 2 2 2 2 3 3 3 4 6 7 5 5 5 5 5 5 6 6 7 9 9 9 8 7 7 6 6 7 7 5 4 5 5 5 5
3 3 2 2 2 3 2 2 3 3 2 2 3 3 4 5 7 8 8 5 5 5 5 5 5 5 6 5 7 9 9 11 10 8 8 8 7 6 6 7 7 7 7
2 2 2 2 3 3 2 3 3 3 3 3 3 4 4 6 7 8 8 5 4 5 6 6 6 6 6 6 6 6 7 7 9 8 8 8 7 7 7 7 7 6 5
2 3 3 2 3 3 3 3 3 3 3 3 3 3 4 5 7 8 7 4 4 5 5 6 6 7 9 9 6 6 7 6 9 11 11 10 11 10 8 4 4 4 6
3 3 3 3 3 4 4 4 3 3 3 3 4 3 4 5 7 8 7 4 4 4 4 5 8 8 10 9 6 6 7 6 5 6 7 7 6 8 9 7 6 6 5
2 2 2 3 3 4 3 3 3 3 3 3 3 4 4 5 7 8 7 4 4 4 4 4 5 9 10 10 8 6 8 6 4 4 4 4 3 4 5 6 6 6 6
2 2 3 3 3 2 2 3 3 3 3 3 3 4 3 4 5 6 8 8 6 4 4 4 5 9 9 9 7 8 8 6 3 4 4 4 4 4 4 5 6 7 7
1 2 3 3 2 2 2 3 2 3 3 3 3 4 3 3 4 7 8 8 8 4 4 7 8 8 7 6 7 7 5 3 4 4 5 5 4 4 3 3 4 4 5
2 2 2 2 3 2 2 3 3 3 3 3 4 4 4 3 3 4 4 5 6 5 4 6 7 6 5 5 5 4 3 4 4 4 4 4 3 3 3 3 3 3 4
2 2 2 3 3 3 3 3 4 4 5 4 4 4 4 4 5 7 5 4 3 4 3 1 1 2 2 2 2 3 3 3 4 3 4 3 4 4 4 3 3 3 4
2 2 2 2 3 3 3 3 5 6 7 8 7 6 6 7 8 8 9 9 8 6 2 1 2 2 3 3 3 3 3 3 3 3 4 4 4 4 4 4 4 4 5
2 3 2 2 2 3 3 3 4 5 6 6 7 8 7 8 8 8 8 8 6 2 1 2 2 2 3 3 3 3 3 3 3 3 4 4 4 4 4 4 4 4 4
3 3 3 2 2 3 3 3 3 3 4 4 6 8 7 7 8 8 7 4 2 1 1 1 2 2 2 3 3 3 3 3 3 3 3 3 3 4 4 4 4 4 5
3 2 2 2 2 2 2 2 2 3 3 4 4 5 7 7 7 6 4 1 1 2 2 2 2 2 2 3 3 3 3 3 3 3 3 3 3 3 4 4 4 6 5
3 5 3 2 2 2 2 2 2 3 3 3 4 4 4 3 2 3 2 1 1 2 2 2 2 2 2 2 2 3 3 3 3 3 3 3 3 3 4 4 4 4 4
3 3 5 3 2 2 2 2 2 2 3 3 4 5 6 2 2 2 2 2 2 2 2 2 2 2 2 2 2 3 3 3 3 3 3 3 3 3 3 3 4 4 4
2 2 2 2 2 2 2 2 2 2 3 4 4 5 7 4 2 2 2 2 2 2 3 2 2 2 2 2 3 3 3 3 3 3 3 3 3 3 3 3 3 3 3
2 2 2 2 2 4 4 2 2 2 3 3 4 4 4 3 3 3 3 3 3 3 3 3 3 3 4 4 4 4 4 4 4 4 4 4 4 3 3 3 4 4 4
2 2 2 3 2 2 2 3 3 3 3 3 3 3 3 3 3 4 4 3 3 4 4 4 4 4 5 5 5 5 6 7 7 6 6 5 4 4 4 4 4 5 5
2 2 3 3 3 3 3 3 3 3 4 4 4 4 4 4 4 4 4 4 4 4 5 5 5 5 6 7 7 7 8 9 9 7 6 5 5 5 5 5 5 4 4
2 2 3 3 3 3 3 4 4 4 4 4 4 4 4 4 4 4 4 4 4 4 5 6 6 7 8 7 8 9 10 10 10 9 6 5 4 4 5 5 5 5 5
Wind_Direction
259 241 240 241 240 247 238 235 237 244 247 243 238 236 236 235 230 222 229 228 227 234 220 212 217 206 208 207 206 212 218 214 234 256 250 249 230 245 260 264 264 261 266
280 266 254 254 246 248 256 249 240 243 248 248 244 238 237 236 234 230 230 231 229 232 223 217 220 215 218 214 211 215 218 216 221 245 248 234 232 239 243 248 260 260 259
285 303 298 279 259 251 260 259 246 243 251 256 246 239 241 237 236 240 231 228 229 234 226 219 218 213 219 220 216 217 219 223 219 232 245 246 246 247 255 265 260 254 261
251 254 275 271 261 260 262 267 252 241 239 242 245 242 242 241 238 243 246 239 233 237 231 223 218 217 219 216 218 219 219 221 221 224 234 244 249 238 230 251 267 252 264
231 246 258 270 269 267 269 273 264 246 242 242 242 248 251 245 238 238 243 246 242 244 239 230 229 233 234 228 225 217 214 218 221 230 234 240 237 229 232 236 255 263 260
231 248 263 270 278 263 260 267 271 259 250 241 242 244 251 253 260 258 251 244 244 250 249 244 242 241 243 246 249 243 232 224 226 229 239 238 239 234 231 237 246 259 265
239 251 256 259 271 267 262 263 268 260 251 250 247 244 251 261 267 264 261 253 238 247 247 241 246 248 248 241 250 254 252 249 245 239 239 240 241 234 230 234 239 246 258
247 258 263 263 271 279 262 258 266 260 246 249 252 247 255 267 273 266 267 257 240 245 243 234 236 240 243 237 236 244 248 250 252 246 237 239 239 234 230 236 239 249 267
253 260 261 257 261 270 263 258 261 262 255 252 252 248 252 268 276 272 269 256 252 251 249 246 242 238 246 247 236 239 252 258 263 262 257 253 252 249 240 237 237 243 262
260 264 265 255 251 260 266 265 262 258 257 261 269 261 256 262 274 275 268 252 258 259 254 251 252 252 251 249 233 230 241 249 249 262 267 262 252 245 242 230 223 237 260
277 279 275 263 259 260 267 268 267 267 267 263 271 273 263 267 278 277 270 255 250 253 254 253 253 259 257 253 250 239 247 252 239 236 243 253 254 242 240 235 227 230 243
281 282 281 277 272 271 262 270 262 255 259 260 266 281 275 276 279 274 273 272 269 248 250 252 255 261 259 258 257 258 261 255 227 228 237 244 248 252 249 241 237 238 243
304 294 293 291 282 275 257 258 256 244 246 264 265 274 281 275 275 279 275 278 283 274 266 269 269 267 267 258 261 265 260 239 227 230 238 246 248 250 252 252 250 251 259
284 288 291 287 286 282 273 261 253 250 247 257 264 270 279 275 268 267 264 272 283 281 275 270 273 273 273 269 262 256 249 243 240 240 242 246 249 245 248 255 261 259 269
281 284 288 280 274 272 269 259 261 250 245 254 251 255 262 268 273 280 274 265 258 261 269 247 244 248 253 261 257 250 246 248 250 243 241 244 247 247 251 251 253 257 256
292 295 290 285 283 279 280 289 284 283 282 276 274 274 268 274 285 287 286 288 286 284 271 218 236 243 248 252 258 264 256 247 249 248 244 241 241 241 248 251 248 247 253
279 286 287 290 289 289 285 285 297 307 303 300 297 294 286 289 292 293 292 296 302 303 240 232 239 243 246 246 248 254 263 260 254 248 245 245 244 244 248 251 247 247 252
285 284 289 283 286 287 287 283 283 292 306 313 317 315 309 304 303 305 308 320 327 343 285 256 251 248 250 249 248 253 258 263 258 255 251 249 246 246 247 247 246 245 252
298 290 287 288 287 288 292 295 292 291 293 303 312 317 317 313 313 312 320 320 274 285 286 273 266 259 254 257 253 250 251 252 252 254 254 253 250 245 248 248 249 255 259
305 306 309 309 307 307 302 295 294 295 299 302 304 306 311 314 316 317 320 308 284 280 279 273 272 269 265 261 259 254 252 252 249 250 253 254 253 246 245 247 250 255 257
305 309 319 323 318 302 295 290 291 292 294 297 299 305 309 303 299 302 302 302 288 280 280 280 275 272 268 267 268 260 254 255 250 246 249 251 250 251 251 249 250 252 258
298 299 302 299 302 299 293 288 293 292 293 296 303 311 320 327 315 303 300 298 294 284 276 271 273 269 261 254 253 255 254 254 254 249 246 249 249 248 249 250 253 255 255
289 291 296 298 294 300 312 310 296 291 292 294 300 308 315 313 307 301 296 295 296 292 289 282 279 282 280 271 256 242 245 252 250 244 241 247 246 242 241 245 247 254 258
273 277 287 294 293 288 291 294 293 291 291 292 295 298 299 298 299 302 300 297 294 292 290 286 279 276 279 282 278 266 253 252 251 244 234 235 237 243 244 245 247 248 251
275 274 279 283 286 285 286 288 289 290 292 293 293 294 295 296 296 297 298 296 292 289 289 288 283 280 279 278 277 276 275 272 267 254 230 220 231 237 241 245 249 253 253
283 278 279 282 280 279 277 280 282 283 285 288 289 289 290 291 291 293 294 293 294 294 291 289 284 281 280 280 280 281 280 278 275 269 246 221 229 240 242 245 245 246 247
Height
1469 1469 1470 1470 1471 1471 1472 1472 1473 1474 1474 1475 1476 1477 1477 1478 1479 1480 1481 1482 1483 1484 1485 1486 1487 1489 1490 1491 1493 1494 1495 1497 1496 1497 1499 1500 1501 1502 1502 1503 1503 1503 1504
1465 1465 1465 1466 1466 1466 1467 1467 1468 1469 1469 1470 1471 1471 1472 1472 1473 1474 1475 1476 1477 1478 1479 1480 1481 1483 1484 1486 1487 1488 1490 1491 1491 1491 1492 1494 1495 1496 1496 1497 1497 1497 1497
1460 1460 1461 1461 1461 1461 1462 1462 1463 1463 1464 1465 1465 1466 1466 1467 1468 1468 1469 1470 1471 1473 1474 1474 1475 1477 1478 1480 1481 1483 1484 1485 1486 1486 1486 1488 1488 1489 1490 1490 1491 1491 1491
1456 1456 1456 1456 1456 1457 1457 1458 1458 1458 1459 1459 1460 1460 1461 1461 1462 1463 1463 1464 1465 1466 1468 1468 1470 1471 1472 1473 1475 1476 1477 1479 1479 1480 1480 1481 1482 1483 1483 1483 1483 1484 1484
1452 1452 1451 1452 1452 1452 1452 1452 1453 1453 1453 1454 1454 1454 1455 1456 1456 1457 1458 1458 1459 1460 1461 1462 1463 1464 1466 1467 1469 1470 1471 1472 1473 1473 1474 1475 1475 1476 1476 1476 1476 1476 1476
1448 1447 1447 1447 1447 1447 1447 1447 1448 1448 1448 1448 1448 1449 1450 1451 1451 1452 1452 1453 1453 1454 1455 1456 1457 1458 1459 1461 1462 1464 1465 1465 1466 1466 1467 1467 1468 1469 1470 1470 1470 1469 1468
1443 1443 1443 1442 1442 1442 1442 1442 1442 1442 1443 1443 1443 1444 1444 1445 1446 1446 1447 1447 1447 1448 1449 1450 1451 1452 1453 1454 1455 1457 1458 1459 1460 1460 1460 1460 1461 1462 1463 1463 1463 1463 1462
1439 1438 1438 1438 1438 1437 1437 1437 1437 1437 1437 1437 1438 1438 1439 1440 1441 1441 1441 1442 1442 1442 1443 1444 1445 1445 1446 1448 1449 1449 1450 1451 1452 1453 1453 1453 1455 1455 1456 1457 1457 1456 1456
1434 1434 1434 1434 1433 1433 1433 1432 1433 1432 1433 1433 1433 1433 1433 1434 1435 1435 1436 1436 1436 1436 1437 1437 1438 1439 1441 1442 1442 1442 1443 1444 1445 1446 1447 1447 1448 1449 1449 1450 1450 1449 1448
1431 1430 1430 1430 1429 1429 1429 1428 1428 1428 1428 1428 1428 1428 1428 1428 1429 1430 1430 1430 1430 1430 1431 1431 1432 1433 1434 1435 1436 1435 1435 1436 1438 1438 1439 1440 1441 1441 1442 1443 1442 1442 1441
1427 1427 1426 1426 1426 1425 1425 1424 1424 1424 1424 1423 1423 1423 1423 1423 1423 1424 1424 1425 1425 1425 1425 1425 1426 1427 1428 1429 1430 1429 1429 1431 1431 1431 1431 1432 1433 1433 1434 1435 1435 1436 1436
1423 1423 1422 1422 1421 1421 1420 1420 1420 1420 1419 1418 1418 1418 1418 1418 1418 1419 1419 1420 1421 1420 1420 1420 1420 1421 1422 1423 1423 1424 1425 1425 1425 1424 1425 1425 1425 1426 1427 1428 1428 1429 1429
1419 1419 1418 1418 1417 1417 1416 1416 1415 1415 1415 1414 1414 1413 1413 1413 1413 1414 1415 1415 1415 1416 1415 1415 1415 1416 1416 1416 1417 1418 1419 1419 1418 1418 1418 1419 1419 1420 1420 1421 1421 1422 1422
1416 1415 1414 1413 1413 1412 1412 1412 1411 1411 1410 1410 1409 1409 1408 1408 1409 1409 1410 1410 1411 1411 1410 1410 1411 1411 1411 1411 1411 1412 1413 1413 1413 1413 1413 1413 1413 1414 1414 1415 1415 1414 1414
1412 1411 1410 1409 1409 1408 1408 1407 1407 1407 1407 1406 1405 1405 1404 1404 1405 1405 1406 1406 1406 1406 1406 1405 1405 1405 1405 1405 1406 1406 1407 1407 1408 1407 1407 1407 1408 1408 1408 1409 1409 1409 1408
1408 1407 1406 1405 1405 1404 1403 1403 1403 1403 1402 1402 1402 1402 1401 1401 1401 1401 1402 1402 1402 1402 1401 1400 1400 1400 1400 1400 1400 1401 1401 1402 1402 1402 1402 1402 1402 1402 1402 1403 1403 1403 1403
1405 1404 1403 1402 1401 1400 1400 1399 1398 1398 1398 1398 1398 1398 1398 1398 1397 1397 1397 1397 1397 1397 1396 1395 1395 1395 1395 1395 1395 1395 1396 1396 1397 1397 1397 1397 1397 1397 1397 1397 1397 1397 1397
1402 1401 1400 1399 1398 1397 1396 1396 1395 1394 1393 1393 1394 1393 1393 1393 1393 1392 1393 1393 1392 1392 1391 1391 1391 1391 1391 1391 1391 1391 1391 1391 1391 1391 1391 1392 1392 1392 1392 1392 1392 1392 1391
1399 1398 1397 1396 1395 1394 1393 1392 1392 1391 1390 1389 1389 1389 1389 1389 1388 1389 1388 1388 1387 1387 1387 1387 1387 1386 1386 1386 1386 1386 1386 1386 1386 1386 1386 1387 1387 1387 1387 1387 1387 1387 1387
1396 1395 1394 1393 1392 1391 1390 1389 1389 1388 1387 1386 1386 1385 1385 1385 1384 1384 1384 1384 1384 1383 1383 1383 1383 1382 1382 1382 1382 1381 1381 1381 1381 1381 1382 1382 1382 1382 1382 1382 1382 1382 1381
1393 1392 1391 1391 1390 1389 1388 1387 1386 1385 1384 1383 1383 1383 1382 1381 1381 1380 1381 1380 1380 1379 1379 1379 1378 1378 1378 1378 1377 1377 1377 1377 1377 1377 1377 1377 1378 1377 1377 1377 1377 1377 1377
1391 1389 1389 1388 1387 1386 1385 1384 1383 1382 1381 1380 1380 1379 1379 1378 1377 1377 1377 1377 1376 1376 1376 1375 1374 1374 1374 1374 1374 1373 1373 1373 1373 1373 1373 1373 1373 1373 1373 1373 1373 1372 1372
1388 1387 1386 1385 1384 1383 1382 1381 1380 1379 1378 1377 1376 1375 1375 1374 1374 1373 1373 1373 1373 1372 1372 1371 1370 1370 1370 1370 1370 1369 1369 1369 1369 1369 1369 1369 1369 1369 1368 1368 1368 1368 1368
1386 1385 1383 1382 1381 1380 1379 1378 1377 1377 1376 1375 1374 1373 1372 1371 1371 1370 1370 1370 1369 1369 1368 1367 1367 1366 1366 1366 1365 1365 1365 1365 1365 1365 1365 1365 1365 1365 1364 1364 1364 1363 1363
1383 1382 1381 1380 1378 1377 1376 1376 1375 1374 1373 1372 1371 1370 1369 1368 1368 1367 1367 1366 1365 1365 1364 1363 1363 1362 1362 1362 1361 1361 1361 1361 1361 1361 1361 1361 1360 1360 1360 1360 1359 1359 1359
1380 1379 1378 1377 1375 1374 1374 1373 1372 1371 1370 1369 1368 1367 1366 1365 1364 1363 1362 1362 1361 1360 1360 1359 1358 1358 1358 1357 1357 1357 1357 1357 1357 1357 1357 1357 1356 1356 1355 1355 1355 1355 1354